Weather History for KLSV - November, 2012

Change the Weather History Date:

Thursday, November 22, 2012

  Actual Average Record
Temperature  
Mean Temperature 56 °F -  
Max Temperature 72 °F 62 °F 75 °F (2002)
Min Temperature 41 °F 39 °F 32 °F (2000)
Degree Days  
Heating Degree Days 8    
Growing Degree Days 6 (Base 50)    
Moisture  
Dew Point 31 °F    
Average Humidity 40    
Maximum Humidity 62    
Minimum Humidity 22    
Precipitation  
Precipitation 0.00 in - - ()
Sea Level Pressure  
Sea Level Pressure 30.16 in    
Wind  
Wind Speed 4 mph (NNE)    
Max Wind Speed 13 mph    
Max Gust Speed -    
Visibility 10 miles    
Events      
Averages and records for this station are not official NWS values.
T = Trace of Precipitation, MM = Missing Value Source: NWS Daily Summary

Daily Weather History Graph

Daily Weather History Graph

Search for Another Location

Airport or City:

Trip Planner

Search our weather history database for the weather conditions in past years. The results will help you decide how hot, cold, wet, or windy it might be!

Date:

Astronomy

Nov. 22, 2012 Rise Set
Actual Time 6:24 AM PST 4:27 PM PST
Civil Twilight 5:56 AM PST 4:55 PM PST
Nautical Twilight 5:25 AM PST 5:27 PM PST
Astronomical Twilight 4:54 AM PST 5:57 PM PST
Moon 1:07 PM PST (11/22) 12:57 AM PST (11/22)
Length of Visible Light 10h 58m
Length of Day
10h 03m
Waxing Gibbous, 72% of the Moon is Illuminated
Nov 22
Waxing Gibbous
Nov 28
Full
Dec 6
Last Quarter
Dec 13
New
Dec 19
First Quarter

Hourly Weather History & Observations

Time (PST) Temp. Windchill Dew Point Humidity Pressure Visibility Wind Dir Wind Speed Gust Speed Precip Events Conditions
12:58 AM 47.7 °F - 30.6 °F 52% 30.05 in 10.0 mi NNE 2.3 mph - N/A   Clear
1:58 AM 45.9 °F - 29.8 °F 54% 30.06 in 10.0 mi Calm Calm - N/A   Clear
2:58 AM 45.7 °F - 30.2 °F 55% 30.07 in 10.0 mi Calm Calm - N/A   Clear
3:58 AM 43.7 °F 42.1 °F 29.1 °F 57% 30.10 in 10.0 mi East 3.5 mph - N/A   Clear
4:58 AM 43.9 °F 42.3 °F 29.7 °F 57% 30.11 in 10.0 mi NW 3.5 mph - N/A   Clear
5:58 AM 41.2 °F - 28.9 °F 62% 30.13 in 10.0 mi ENE 1.2 mph - N/A   Clear
6:58 AM 44.8 °F - 30.4 °F 57% 30.15 in 10.0 mi WNW 2.3 mph - N/A   Clear
7:58 AM 44.4 °F 42.9 °F 30.6 °F 58% 30.19 in 10.0 mi ENE 3.5 mph - N/A   Clear
8:58 AM 52.3 °F - 33.3 °F 48% 30.19 in 10.0 mi Calm Calm - N/A   Clear
9:58 AM 58.5 °F - 32.7 °F 38% 30.19 in 10.0 mi WSW 3.5 mph - N/A   Clear
10:58 AM 64.9 °F - 32.5 °F 30% 30.17 in 10.0 mi North 1.2 mph - N/A   Clear
11:58 AM 69.1 °F - 31.3 °F 25% 30.15 in 10.0 mi ENE 12.7 mph - N/A   Clear
12:58 PM 70.7 °F - 30.9 °F 23% 30.13 in 10.0 mi NE 12.7 mph - N/A   Clear
1:58 PM 72.0 °F - 31.6 °F 23% 30.12 in 10.0 mi NE 11.5 mph - N/A   Clear
2:58 PM 72.1 °F - 30.7 °F 22% 30.12 in 10.0 mi North 6.9 mph - N/A   Clear
3:58 PM 71.8 °F - 31.5 °F 23% 30.13 in 10.0 mi WNW 3.5 mph - N/A   Clear
4:58 PM 66.7 °F - 31.3 °F 27% 30.15 in 10.0 mi NW 3.5 mph - N/A   Clear
5:58 PM 60.3 °F - 31.5 °F 34% 30.17 in 10.0 mi NE 1.2 mph - N/A   Clear
6:58 PM 60.1 °F - 30.0 °F 32% 30.19 in 10.0 mi NNW 5.8 mph - N/A   Clear
7:58 PM 55.6 °F - 28.9 °F 36% 30.22 in 10.0 mi ENE 3.5 mph - N/A   Clear
8:58 PM 56.5 °F - 30.2 °F 37% 30.23 in 10.0 mi ENE 11.5 mph - N/A   Clear
9:58 PM 54.0 °F - 29.8 °F 40% 30.24 in 10.0 mi ENE 6.9 mph - N/A   Clear
10:58 PM 59.4 °F - 30.7 °F 34% 30.23 in 10.0 mi East 10.4 mph - N/A   Clear
11:58 PM 53.2 °F - 29.7 °F 40% 30.25 in 10.0 mi Variable 2.3 mph - N/A   Clear